| time (UTC) | temp C | wind direction | speed KPH | gust KPH | rain 1hr cm | rain 24hr cm | rain mn cm | humidity % | barometer mb |
| 20260504203026 | 15 | 219 | 0.0 | 6.4 | 0.00 | 0.00 | 0.00 | 1 | 1013.1 |
| 20260504202520 | 15 | 225 | 0.0 | 6.4 | 0.00 | 0.00 | 0.00 | 1 | 1013.2 |
| 20260504202019 | 15 | 211 | 0.0 | 9.7 | 0.00 | 0.00 | 0.00 | 1 | 1013.2 |
| 20260504201625 | 15 | 274 | 0.0 | 11.3 | 0.00 | 0.00 | 0.00 | 1 | 1013.2 |
| 20260504201059 | 16 | 252 | 3.2 | 11.3 | 0.00 | 0.00 | 0.00 | 1 | 1013.2 |
| 20260504200557 | 16 | 225 | 1.6 | 9.7 | 0.00 | 0.00 | 0.00 | 1 | 1013.3 |
| 20260504200056 | 15 | 44 | 0.0 | 12.9 | 0.00 | 0.00 | 0.00 | 1 | 1013.3 |
| 20260504195554 | 16 | 246 | 3.2 | 12.9 | 0.00 | 0.00 | 0.00 | 1 | 1013.2 |
| 20260504195052 | 16 | 257 | 3.2 | 12.9 | 0.00 | 0.00 | 0.00 | 1 | 1013.2 |
| 20260504194534 | 16 | 236 | 4.8 | 11.3 | 0.00 | 0.00 | 0.00 | 1 | 1013.2 |
| 20260504194032 | 15 | 249 | 3.2 | 11.3 | 0.00 | 0.00 | 0.00 | 1 | 1013.1 |
| 20260504193530 | 15 | 235 | 3.2 | 14.5 | 0.00 | 0.00 | 0.00 | 1 | 1013.1 |
| 20260504193030 | 15 | 211 | 3.2 | 17.7 | 0.00 | 0.00 | 0.00 | 1 | 1013.2 |
| 20260504192527 | 15 | 207 | 1.6 | 9.7 | 0.00 | 0.00 | 0.00 | 1 | 1013.1 |
| 20260504192029 | 15 | 224 | 1.6 | 9.7 | 0.00 | 0.00 | 0.00 | 1 | 1013.2 |
| 20260504191510 | 15 | 224 | 1.6 | 16.1 | 0.00 | 0.00 | 0.00 | 1 | 1013.2 |
| 20260504191009 | 16 | 236 | 6.4 | 16.1 | 0.00 | 0.00 | 0.00 | 1 | 1013.2 |
| 20260504190509 | 15 | 231 | 1.6 | 12.9 | 0.00 | 0.00 | 0.00 | 1 | 1013.1 |
| 20260504190009 | 16 | 225 | 3.2 | 8.0 | 0.00 | 0.00 | 0.00 | 1 | 1013.2 |
| 20260504185508 | 16 | 223 | 0.0 | 14.5 | 0.00 | 0.00 | 0.00 | 1 | 1013.1 |
| 20260504185006 | 16 | 238 | 6.4 | 14.5 | 0.00 | 0.00 | 0.00 | 1 | 1013.1 |
| 20260504184602 | 16 | 238 | 1.6 | 11.3 | 0.00 | 0.00 | 0.00 | 1 | 1013.1 |
| 20260504184043 | 15 | 224 | 0.0 | 14.5 | 0.00 | 0.00 | 0.00 | 1 | 1013.1 |
| 20260504183542 | 15 | 190 | 3.2 | 14.5 | 0.00 | 0.00 | 0.00 | 1 | 1013.1 |
| 20260504183042 | 15 | 246 | 4.8 | 14.5 | 0.00 | 0.00 | 0.00 | 1 | 1013.1 |
| 20260504182539 | 15 | 225 | 1.6 | 14.5 | 0.00 | 0.00 | 0.00 | 1 | 1013.1 |
| 20260504182039 | 15 | 218 | 4.8 | 11.3 | 0.00 | 0.00 | 0.00 | 1 | 1013.1 |
| 20260504181529 | 15 | 210 | 1.6 | 8.0 | 0.00 | 0.00 | 0.00 | 1 | 1013.0 |
| 20260504181020 | 14 | 238 | 0.0 | 16.1 | 0.00 | 0.00 | 0.00 | 1 | 1013.1 |
| 20260504180519 | 14 | 217 | 4.8 | 16.1 | 0.00 | 0.00 | 0.00 | 1 | 1013.1 |
| 20260504180018 | 14 | 239 | 1.6 | 9.7 | 0.00 | 0.00 | 0.00 | 1 | 1012.9 |
| 20260504175515 | 14 | 225 | 1.6 | 8.0 | 0.00 | 0.00 | 0.00 | 1 | 1012.9 |
| 20260504175015 | 13 | 172 | 1.6 | 12.9 | 0.00 | 0.00 | 0.00 | 1 | 1012.9 |
| 20260504174555 | 13 | 231 | 0.0 | 12.9 | 0.00 | 0.00 | 0.00 | 1 | 1012.9 |
| 20260504174055 | 13 | 172 | 1.6 | 19.3 | 0.00 | 0.00 | 0.00 | 1 | 1012.8 |
| 20260504173553 | 13 | 209 | 6.4 | 19.3 | 0.00 | 0.00 | 0.00 | 1 | 1012.9 |
| 20260504173051 | 13 | 124 | 6.4 | 14.5 | 0.00 | 0.00 | 0.00 | 1 | 1012.9 |
| 20260504172549 | 13 | 338 | 3.2 | 11.3 | 0.00 | 0.00 | 0.00 | 1 | 1012.7 |
| 20260504172048 | 13 | 235 | 3.2 | 11.3 | 0.00 | 0.00 | 0.00 | 1 | 1012.8 |
| 20260504171533 | 13 | 229 | 1.6 | 19.3 | 0.00 | 0.00 | 0.00 | 1 | 1012.8 |
| 20260504171031 | 13 | 153 | 1.6 | 19.3 | 0.00 | 0.00 | 0.00 | 1 | 1012.7 |
| 20260504170531 | 13 | 243 | 1.6 | 9.7 | 0.00 | 0.00 | 0.00 | 1 | 1012.7 |
| 20260504151042 | 12 | 211 | 3.2 | 8.0 | 0.00 | 0.00 | 0.00 | 1011.9 | |
| 20260504150541 | -17 | 0.0 | 0.0 | 0.00 | 0.00 | 0.00 | 1011.9 | ||
| 20260504141050 | -17 | 0.0 | 0.0 | 0.00 | 0.00 | 0.00 | 1011.5 | ||
| 20260504140649 | -17 | 0.0 | 0.0 | 0.00 | 0.00 | 0.00 | 1011.4 | ||
| 20260504140105 | -17 | 0.0 | 0.0 | 0.00 | 0.00 | 0.00 | 1011.3 | ||
| 20260504130602 | -17 | 0.0 | 0.0 | 0.00 | 0.00 | 0.00 | 1010.8 | ||
| 20260504110532 | -17 | 0.0 | 0.0 | 0.00 | 0.00 | 0.00 | 1010.1 | ||
| 20260504100556 | -17 | 0.0 | 0.0 | 0.00 | 0.00 | 0.00 | 1009.7 | ||
| 20260504082000 | -17 | 0.0 | 0.0 | 0.00 | 0.00 | 0.00 | 1008.4 | ||
| 20260504081601 | -17 | 0.0 | 0.0 | 0.00 | 0.00 | 0.00 | 1008.4 | ||
| 20260504081059 | -17 | 0.0 | 0.0 | 0.00 | 0.00 | 0.00 | 1008.4 | ||
| 20260504080541 | -17 | 0.0 | 0.0 | 0.00 | 0.00 | 0.00 | 1008.4 | ||
| 20260504050546 | 12 | 255 | 0.0 | 0.0 | 0.00 | 0.00 | 0.00 | 1 | 1008.5 |
| 20260504045542 | 12 | 256 | 0.0 | 0.0 | 0.00 | 0.00 | 0.00 | 1 | 1008.5 |
| 20260504045041 | 12 | 257 | 0.0 | 0.0 | 0.00 | 0.00 | 0.00 | 1 | 1008.4 |
| 20260504044539 | 13 | 257 | 0.0 | 0.0 | 0.00 | 0.00 | 0.00 | 1 | 1008.5 |
| 20260504044039 | 13 | 257 | 0.0 | 0.0 | 0.00 | 0.00 | 0.00 | 1 | 1008.4 |
| 20260504043537 | 13 | 257 | 0.0 | 0.0 | 0.00 | 0.00 | 0.00 | 1 | 1008.4 |
| 20260504043035 | 13 | 256 | 0.0 | 0.0 | 0.00 | 0.00 | 0.00 | 1 | 1008.4 |
| 20260504042534 | 13 | 257 | 0.0 | 0.0 | 0.00 | 0.00 | 0.00 | 1 | 1008.4 |
| 20260504042031 | 13 | 257 | 0.0 | 0.0 | 0.00 | 0.00 | 0.00 | 1 | 1008.4 |
| 20260504041531 | 13 | 252 | 0.0 | 0.0 | 0.00 | 0.00 | 0.00 | 1 | 1008.4 |
| 20260504041030 | 13 | 252 | 0.0 | 0.0 | 0.00 | 0.00 | 0.00 | 1 | 1008.4 |
| 20260504040510 | 13 | 257 | 0.0 | 0.0 | 0.00 | 0.00 | 0.00 | 1 | 1008.3 |
| 20260504040009 | 13 | 266 | 0.0 | 0.0 | 0.00 | 0.00 | 0.00 | 1 | 1008.3 |
| 20260504035510 | 13 | 273 | 0.0 | 0.0 | 0.00 | 0.00 | 0.00 | 1 | 1008.3 |
| 20260504035007 | 14 | 248 | 0.0 | 0.0 | 0.00 | 0.00 | 0.00 | 1 | 1008.3 |
| 20260504034510 | 14 | 248 | 0.0 | 0.0 | 0.00 | 0.00 | 0.00 | 1 | 1008.3 |
| 20260504034003 | 14 | 248 | 0.0 | 0.0 | 0.00 | 0.00 | 0.00 | 1 | 1008.3 |
| 20260504033605 | 15 | 248 | 0.0 | 0.0 | 0.00 | 0.00 | 0.00 | 1 | 1008.3 |
| 20260504033051 | 15 | 248 | 0.0 | 0.0 | 0.00 | 0.00 | 0.00 | 1 | 1008.3 |
| 20260504032542 | 15 | 246 | 0.0 | 0.0 | 0.00 | 0.00 | 0.00 | 1 | 1008.3 |
| 20260504032041 | 16 | 246 | 0.0 | 0.0 | 0.00 | 0.00 | 0.00 | 1 | 1008.2 |
| 20260504031538 | 16 | 281 | 0.0 | 0.0 | 0.00 | 0.00 | 0.00 | 1 | 1008.2 |
| 20260504031037 | 16 | 256 | 0.0 | 1.6 | 0.00 | 0.00 | 0.00 | 1 | 1008.3 |
| 20260504030536 | 16 | 259 | 0.0 | 1.6 | 0.00 | 0.00 | 0.00 | 1 | 1008.3 |
| 20260504030017 | 17 | 264 | 0.0 | 1.6 | 0.00 | 0.00 | 0.00 | 5 | 1008.3 |
| 20260504025516 | 17 | 263 | 0.0 | 1.6 | 0.00 | 0.00 | 0.00 | 15 | 1008.3 |
| 20260504025019 | 17 | 252 | 0.0 | 1.6 | 0.00 | 0.00 | 0.00 | 20 | 1008.3 |
| 20260504024533 | 17 | 274 | 0.0 | 1.6 | 0.00 | 0.00 | 0.00 | 27 | 1008.3 |
| 20260504024011 | 17 | 271 | 0.0 | 0.0 | 0.00 | 0.00 | 0.00 | 31 | 1008.2 |
| 20260504023510 | 17 | 269 | 0.0 | 0.0 | 0.00 | 0.00 | 0.00 | 35 | 1008.3 |
| 20260504023051 | 17 | 214 | 0.0 | 0.0 | 0.00 | 0.00 | 0.00 | 39 | 1008.3 |
| 20260504022550 | 17 | 280 | 0.0 | 0.0 | 0.00 | 0.00 | 0.00 | 41 | 1008.3 |
| 20260504022048 | 17 | 278 | 0.0 | 1.6 | 0.00 | 0.00 | 0.00 | 47 | 1008.3 |
| 20260504021552 | 17 | 255 | 0.0 | 6.4 | 0.00 | 0.00 | 0.00 | 51 | 1008.3 |
| 20260504021047 | 17 | 263 | 0.0 | 3.2 | 0.00 | 0.00 | 0.00 | 55 | 1008.4 |
| 20260504020546 | 18 | 240 | 0.0 | 3.2 | 0.00 | 0.00 | 0.00 | 55 | 1008.3 |
| 20260504020028 | 17 | 277 | 0.0 | 3.2 | 0.00 | 0.00 | 0.00 | 57 | 1008.4 |
| 20260504015528 | 18 | 235 | 0.0 | 3.2 | 0.00 | 0.00 | 0.00 | 59 | 1008.5 |
| 20260504015028 | 18 | 300 | 0.0 | 1.6 | 0.00 | 0.00 | 0.00 | 60 | 1008.4 |
| 20260504014527 | 18 | 264 | 0.0 | 3.2 | 0.00 | 0.00 | 0.00 | 61 | 1008.5 |
| 20260504014026 | 18 | 278 | 0.0 | 3.2 | 0.00 | 0.00 | 0.00 | 61 | 1008.5 |
| 20260504013525 | 18 | 219 | 0.0 | 3.2 | 0.00 | 0.00 | 0.00 | 62 | 1008.5 |
| 20260504013007 | 18 | 26 | 0.0 | 3.2 | 0.00 | 0.00 | 0.00 | 62 | 1008.7 |
| 20260504012507 | 18 | 284 | 0.0 | 1.6 | 0.00 | 0.00 | 0.00 | 62 | 1008.7 |
| 20260504012006 | 18 | 266 | 0.0 | 1.6 | 0.00 | 0.00 | 0.00 | 62 | 1008.7 |
| 20260504011506 | 18 | 80 | 0.0 | 8.0 | 0.00 | 0.00 | 0.00 | 62 | 1008.7 |
| 20260504011005 | 18 | 314 | 1.6 | 14.5 | 0.00 | 0.00 | 0.00 | 61 | 1008.8 |
| 20260504010505 | 18 | 209 | 3.2 | 14.5 | 0.00 | 0.00 | 0.00 | 60 | 1008.9 |
| 20260504010046 | 18 | 253 | 0.0 | 6.4 | 0.00 | 0.00 | 0.00 | 60 | 1008.9 |
| 20260504005545 | 18 | 15 | 0.0 | 6.4 | 0.00 | 0.00 | 0.00 | 59 | 1008.9 |
| 20260504005046 | 18 | 260 | 0.0 | 3.2 | 0.00 | 0.00 | 0.00 | 60 | 1009.0 |
| 20260504004558 | 18 | 305 | 0.0 | 4.8 | 0.00 | 0.00 | 0.00 | 59 | 1009.1 |
| 20260504004042 | 18 | 32 | 1.6 | 4.8 | 0.00 | 0.00 | 0.00 | 59 | 1009.1 |
| 20260504003543 | 19 | 293 | 0.0 | 4.8 | 0.00 | 0.00 | 0.00 | 59 | 1009.1 |
| 20260504003022 | 19 | 197 | 0.0 | 6.4 | 0.00 | 0.00 | 0.00 | 58 | 1009.2 |
| 20260504002521 | 19 | 281 | 0.0 | 6.4 | 0.00 | 0.00 | 0.00 | 59 | 1009.3 |
| 20260504002022 | 19 | 288 | 0.0 | 8.0 | 0.00 | 0.00 | 0.00 | 58 | 1009.3 |
| 20260504001521 | 19 | 326 | 0.0 | 8.0 | 0.00 | 0.00 | 0.00 | 59 | 1009.3 |
| 20260504001025 | 19 | 314 | 0.0 | 6.4 | 0.00 | 0.00 | 0.00 | 60 | 1009.3 |
| 20260504000524 | 20 | 309 | 1.6 | 8.0 | 0.00 | 0.00 | 0.00 | 60 | 1009.3 |
| 20260504000002 | 20 | 303 | 0.0 | 8.0 | 0.00 | 0.00 | 0.00 | 61 | 1009.4 |
| 20260503235503 | 19 | 245 | 0.0 | 8.0 | 0.00 | 0.00 | 0.00 | 60 | 1009.4 |
| 20260503235105 | 20 | 200 | 1.6 | 8.0 | 0.00 | 0.00 | 0.00 | 59 | 1009.5 |
| 20260503234600 | 19 | 46 | 0.0 | 8.0 | 0.00 | 0.00 | 0.00 | 59 | 1009.5 |
| 20260503234100 | 19 | 271 | 0.0 | 6.4 | 0.00 | 0.00 | 0.00 | 58 | 1009.5 |
| 20260503233600 | 20 | 120 | 1.6 | 11.3 | 0.00 | 0.00 | 0.00 | 59 | 1009.6 |
| 20260503233041 | 20 | 309 | 1.6 | 11.3 | 0.00 | 0.00 | 0.00 | 59 | 1009.7 |
| 20260503232540 | 19 | 62 | 1.6 | 8.0 | 0.00 | 0.00 | 0.00 | 59 | 1009.8 |
| 20260503232040 | 19 | 276 | 0.0 | 8.0 | 0.00 | 0.00 | 0.00 | 61 | 1009.8 |
| 20260503231549 | 19 | 46 | 1.6 | 4.8 | 0.00 | 0.00 | 0.00 | 60 | 1009.9 |
| 20260503231038 | 19 | 297 | 0.0 | 3.2 | 0.00 | 0.00 | 0.00 | 59 | 1009.9 |
| 20260503230540 | 20 | 295 | 0.0 | 4.8 | 0.00 | 0.00 | 0.00 | 61 | 1010.0 |
| 20260503230019 | 20 | 304 | 1.6 | 4.8 | 0.00 | 0.00 | 0.00 | 60 | 1010.0 |
| 20260503225517 | 20 | 308 | 1.6 | 6.4 | 0.00 | 0.00 | 0.00 | 59 | 1010.1 |
| 20260503225016 | 20 | 316 | 0.0 | 6.4 | 0.00 | 0.00 | 0.00 | 59 | 1010.1 |
| 20260503224515 | 20 | 302 | 0.0 | 4.8 | 0.00 | 0.00 | 0.00 | 58 | 1010.2 |
| 20260503224015 | 20 | 250 | 1.6 | 12.9 | 0.00 | 0.00 | 0.00 | 59 | 1010.3 |
| 20260503223513 | 20 | 28 | 1.6 | 9.7 | 0.00 | 0.00 | 0.00 | 59 | 1010.3 |
| 20260503223059 | 20 | 293 | 0.0 | 4.8 | 0.00 | 0.00 | 0.00 | 58 | 1010.4 |
| 20260503222556 | 20 | 113 | 0.0 | 8.0 | 0.00 | 0.00 | 0.00 | 59 | 1010.4 |
| 20260503222057 | 20 | 329 | 1.6 | 9.7 | 0.00 | 0.00 | 0.00 | 59 | 1010.5 |
| 20260503221556 | 21 | 302 | 1.6 | 8.0 | 0.00 | 0.00 | 0.00 | 58 | 1010.5 |
| 20260503221056 | 21 | 320 | 1.6 | 8.0 | 0.00 | 0.00 | 0.00 | 58 | 1010.5 |
| 20260503220552 | 21 | 300 | 0.0 | 9.7 | 0.00 | 0.00 | 0.00 | 59 | 1010.6 |
| 20260503220037 | 21 | 70 | 1.6 | 11.3 | 0.00 | 0.00 | 0.00 | 55 | 1010.6 |
| 20260503215534 | 21 | 290 | 0.0 | 9.7 | 0.00 | 0.00 | 0.00 | 56 | 1010.7 |
| 20260503215032 | 21 | 66 | 1.6 | 11.3 | 0.00 | 0.00 | 0.00 | 56 | 1010.7 |
| 20260503214530 | 21 | 255 | 1.6 | 11.3 | 0.00 | 0.00 | 0.00 | 54 | 1010.7 |
| 20260503214029 | 22 | 309 | 1.6 | 6.4 | 0.00 | 0.00 | 0.00 | 56 | 1010.8 |
| 20260503213528 | 22 | 298 | 1.6 | 8.0 | 0.00 | 0.00 | 0.00 | 54 | 1010.8 |
| 20260503213015 | 22 | 98 | 0.0 | 8.0 | 0.00 | 0.00 | 0.00 | 55 | 1010.8 |
| 20260503212508 | 22 | 84 | 0.0 | 6.4 | 0.00 | 0.00 | 0.00 | 53 | 1010.7 |
| 20260503212007 | 23 | 283 | 0.0 | 6.4 | 0.00 | 0.00 | 0.00 | 51 | 1010.8 |
| 20260503211506 | 23 | 50 | 0.0 | 4.8 | 0.00 | 0.00 | 0.00 | 55 | 1010.7 |
| 20260503211004 | 23 | 305 | 0.0 | 6.4 | 0.00 | 0.00 | 0.00 | 52 | 1010.7 |
| 20260503210503 | 23 | 109 | 1.6 | 16.1 | 0.00 | 0.00 | 0.00 | 52 | 1010.8 |
| 20260503205543 | 23 | 314 | 0.0 | 4.8 | 0.00 | 0.00 | 0.00 | 53 | 1010.9 |
| 20260503205044 | 23 | 43 | 0.0 | 8.0 | 0.00 | 0.00 | 0.00 | 52 | 1010.9 |
| 20260503204539 | 23 | 347 | 3.2 | 8.0 | 0.00 | 0.00 | 0.00 | 50 | 1011.0 |
| 20260503204039 | 23 | 209 | 0.0 | 4.8 | 0.00 | 0.00 | 0.00 | 51 | 1011.0 |
| 20260503203537 | 23 | 240 | 0.0 | 4.8 | 0.00 | 0.00 | 0.00 | 51 | 1011.1 |